Location: Middelsbur
(53.6609°N, 7.5020°E)
Time: 23:01:58
(UTC+00:00)

COSMOS 2455 - Pass Details

Date: 06 July 2020
Orbit: 898 x 911 km, 67.1° (Epoch: 14 August)

Event Time Altitude Azimuth Distance (km) Brightness Sun altitude
Rises 21:42:54 0° 317° (NW) 3,551 7.6 -10.0°
Reaches altitude 10° 21:45:32 10° 324° (NW) 2,608 6.8 -10.2°
Maximum altitude 21:51:21 46° 37° (NE) 1,207 3.8 -10.6°
Drops below altitude 10° 21:57:09 10° 110° (ESE) 2,600 4.8 -10.9°
Enters shadow 21:58:40 - 115° (ESE) 3,135 5.2 -11.0°
